CW8209 Weather Reports


time (UTC)temp
C
wind
direction
speed
KPH
gust
KPH
rain 1hr
cm
rain 24hr
cm
rain mn
cm
humidity
%
barometer
mb
20260510190857 9 266 8.0 16.1 0.00 0.20 0.00 52 1017.5
20260510190339 9 296 4.8 17.7 0.00 0.20 0.00 51 1017.5
20260510185838 9 9 8.0 17.7 0.00 0.20 0.00 56 1017.5
20260510185346 8 325 9.7 17.7 0.00 0.20 0.00 55 1017.5
20260510184824 8 28 12.9 20.9 0.00 0.20 0.00 52 1017.4
20260510184328 8 19 6.4 20.9 0.00 0.20 0.00 56 1017.5
20260510183829 8 360 8.0 17.7 0.00 0.20 0.00 57 1017.4
20260510183354 8 15 11.3 19.3 0.00 0.20 0.00 55 1017.4
20260510182833 8 14 9.7 19.3 0.00 0.20 0.00 56 1017.4
20260510182337 8 360 11.3 19.3 0.00 0.20 0.00 60 1017.4
20260510181856 8 313 12.9 19.3 0.00 0.20 0.00 56 1017.4
20260510181358 8 308 14.5 20.9 0.00 0.20 0.00 58 1017.4
20260510180837 8 270 14.5 20.9 0.00 0.20 0.00 62 1017.3
20260510180341 7 348 11.3 24.1 0.00 0.20 0.00 60 1017.4
20260510175840 7 338 14.5 24.1 0.00 0.20 0.00 58 1017.4
20260510175344 7 317 16.1 24.1 0.00 0.20 0.00 59 1017.4
20260510174841 7 335 16.1 24.1 0.00 0.20 0.00 58 1017.3
20260510174325 7 306 17.7 24.1 0.00 0.20 0.00 57 1017.3
20260510173828 7 301 17.7 27.4 0.00 0.20 0.00 59 1017.3
20260510173333 7 360 19.3 27.4 0.00 0.20 0.00 56 1017.3
20260510172834 7 343 16.1 25.7 0.00 0.20 0.00 63 1017.3
20260510172339 7 340 16.1 25.7 0.00 0.20 0.00 66 1017.3
20260510171859 7 299 16.1 24.1 0.00 0.20 0.00 66 1017.3
20260510171341 7 315 16.1 25.7 0.00 0.20 0.00 63 1017.3
20260510170841 7 360 17.7 27.4 0.00 0.20 0.00 65 1017.2
20260510170403 7 289 17.7 27.4 0.00 0.20 0.00 66 1017.2
20260510165842 7 317 16.1 29.0 0.00 0.20 0.00 66 1017.1
20260510165325 7 292 17.7 25.7 0.00 0.20 0.00 68 1017.1
20260510164825 7 9 14.5 29.0 0.00 0.20 0.00 66 1017.0
20260510164330 7 289 19.3 29.0 0.00 0.20 0.00 67 1017.0
20260510163830 7 360 16.1 27.4 0.00 0.20 0.00 69 1016.9
20260510163334 7 302 16.1 27.4 0.00 0.20 0.00 67 1016.8
20260510162837 7 342 14.5 25.7 0.00 0.20 0.00 66 1016.8
20260510162342 7 325 17.7 25.7 0.00 0.20 0.00 67 1016.8
20260510161842 7 325 16.1 25.7 0.00 0.20 0.00 70 1016.8
20260510161345 7 320 17.7 25.7 0.00 0.20 0.00 70 1016.7
20260510160824 7 296 17.7 25.7 0.00 0.20 0.00 72 1016.7
20260510160328 7 350 17.7 27.4 0.00 0.20 0.00 67 1016.6
20260510155837 7 294 17.7 29.0 0.00 0.20 0.00 70 1016.6
20260510155341 7 296 16.1 29.0 0.00 0.20 0.00 71 1016.6
20260510154838 7 312 17.7 29.0 0.00 0.20 0.00 71 1016.5
20260510154342 7 9 17.7 27.4 0.00 0.20 0.00 75 1016.5
20260510153840 7 350 17.7 27.4 0.00 0.23 0.00 73 1016.5
20260510153324 7 302 17.7 29.0 0.00 0.23 0.00 74 1016.4
20260510152841 7 294 16.1 29.0 0.00 0.23 0.00 75 1016.4
20260510152328 7 345 19.3 27.4 0.00 0.23 0.00 73 1016.3
20260510151849 7 302 16.1 29.0 0.00 0.23 0.00 74 1016.2
20260510151331 6 319 17.7 30.6 0.00 0.23 0.00 73 1016.1
20260510150831 6 341 20.9 30.6 0.00 0.23 0.00 73 1015.9
20260510150356 6 302 20.9 33.8 0.00 0.23 0.00 73 1015.8
20260510145835 6 337 17.7 25.7 0.00 0.23 0.00 74 1015.7
20260510145340 6 313 19.3 25.7 0.00 0.23 0.00 73 1015.6
20260510144839 6 320 17.7 25.7 0.00 0.23 0.00 73 1015.6
20260510144343 6 325 19.3 24.1 0.00 0.23 0.00 74 1015.5
20260510143842 6 329 16.1 24.1 0.00 0.28 0.00 74 1015.4
20260510143326 6 321 17.7 25.7 0.00 0.28 0.00 75 1015.4
20260510142826 6 304 17.7 25.7 0.00 0.28 0.00 75 1015.3
20260510142331 6 281 14.5 24.1 0.00 0.28 0.00 77 1015.3
20260510141831 6 315 17.7 25.7 0.00 0.28 0.00 76 1015.1
20260510141339 6 293 19.3 32.2 0.00 0.28 0.00 75 1015.1
20260510140838 6 288 19.3 32.2 0.00 0.28 0.00 75 1015.1
20260510140343 6 288 17.7 27.4 0.00 0.28 0.00 75 1015.1
20260510135843 6 298 16.1 27.4 0.00 0.28 0.00 76 1015.0
20260510135326 6 315 19.3 27.4 0.00 0.28 0.00 76 1014.9
20260510134826 6 360 19.3 30.6 0.00 0.28 0.00 76 1014.8
20260510134330 6 313 17.7 29.0 0.00 0.28 0.00 76 1014.9
20260510133850 6 315 19.3 29.0 0.00 0.28 0.00 75 1014.8
20260510133333 6 336 19.3 29.0 0.00 0.28 0.00 75 1014.7
20260510132853 6 299 19.3 29.0 0.00 0.28 0.00 74 1014.7
20260510132336 6 319 20.9 29.0 0.00 0.28 0.00 73 1014.6
20260510131835 6 325 17.7 25.7 0.00 0.28 0.00 73 1014.5
20260510131340 6 302 17.7 25.7 0.00 0.28 0.00 74 1014.3
20260510130838 6 303 17.7 25.7 0.00 0.28 0.00 73 1014.2
20260510130347 6 311 16.1 20.9 0.00 0.28 0.00 73 1014.2
20260510125825 6 299 16.1 22.5 0.00 0.28 0.00 73 1014.1
20260510125329 6 325 16.1 22.5 0.00 0.28 0.00 72 1014.0
20260510124848 6 284 14.5 24.1 0.00 0.28 0.00 73 1014.0
20260510124331 6 306 16.1 24.1 0.00 0.28 0.00 73 1013.9
20260510123832 5 305 17.7 24.1 0.00 0.28 0.00 72 1013.9
20260510123356 5 321 16.1 24.1 0.00 0.28 0.00 73 1013.8
20260510122835 5 360 14.5 22.5 0.00 0.28 0.00 73 1013.7
20260510122339 5 273 16.1 22.5 0.00 0.28 0.00 73 1013.8
20260510121838 5 312 16.1 20.9 0.00 0.28 0.00 74 1013.6
20260510121342 5 311 16.1 25.7 0.00 0.28 0.00 75 1013.5
20260510120901 5 301 17.7 25.7 0.00 0.28 0.00 74 1013.5
20260510120343 5 303 17.7 25.7 0.00 0.28 0.00 74 1013.5
20260510115840 5 315 17.7 25.7 0.00 0.28 0.00 74 1013.3
20260510115342 5 305 16.1 24.1 0.00 0.28 0.00 74 1013.2
20260510114836 5 318 17.7 27.4 0.00 0.28 0.00 74 1013.2
20260510114340 5 360 16.1 27.4 0.00 0.28 0.00 74 1013.2
20260510113841 4 35 16.1 27.4 0.00 0.28 0.00 75 1013.1
20260510113403 4 360 17.7 24.1 0.00 0.28 0.00 74 1012.9
20260510112839 4 360 16.1 25.7 0.00 0.28 0.00 76 1012.9
20260510112341 4 360 17.7 25.7 0.00 0.28 0.00 76 1012.8
20260510111827 4 360 16.1 25.7 0.00 0.28 0.00 75 1012.8
20260510111349 3 360 17.7 25.7 0.00 0.28 0.00 75 1012.7
20260510110839 3 360 14.5 22.5 0.00 0.28 0.00 75 1012.5
20260510110400 3 360 17.7 24.1 0.00 0.28 0.00 75 1012.5
20260510105858 3 360 17.7 25.7 0.00 0.28 0.00 75 1012.4
20260510105341 3 360 17.7 25.7 0.00 0.28 0.00 75 1012.3
20260510104840 3 360 16.1 25.7 0.00 0.28 0.00 75 1012.2
20260510104343 3 360 17.7 33.8 0.00 0.28 0.00 75 1012.2
20260510103841 3 360 19.3 33.8 0.00 0.28 0.00 75 1012.1
20260510103325 3 360 17.7 24.1 0.00 0.28 0.00 75 1012.0
20260510102845 3 360 17.7 24.1 0.00 0.28 0.00 75 1011.9
20260510102329 3 360 17.7 25.7 0.00 0.28 0.00 75 1011.8
20260510101830 3 360 14.5 25.7 0.00 0.28 0.00 76 1011.7
20260510101334 3 360 14.5 25.7 0.00 0.28 0.00 76 1011.7
20260510100834 3 360 16.1 24.1 0.00 0.28 0.00 76 1011.6
20260510100324 3 360 16.1 24.1 0.00 0.28 0.00 78 1011.6
20260510095843 3 360 12.9 24.1 0.00 0.28 0.00 78 1011.4
20260510095326 3 155 12.9 19.3 0.00 0.28 0.00 79 1011.4
20260510094825 3 148 16.1 27.4 0.00 0.28 0.00 79 1011.2
20260510094330 3 178 16.1 27.4 0.00 0.28 0.00 79 1011.2
20260510093830 3 191 14.5 17.7 0.00 0.28 0.00 79 1011.1
20260510093334 3 161 14.5 20.9 0.00 0.28 0.00 78 1011.0
20260510092835 3 161 16.1 22.5 0.00 0.28 0.00 77 1011.0
20260510092339 3 161 14.5 20.9 0.00 0.28 0.00 77 1011.0
20260510091838 3 360 12.9 20.9 0.00 0.28 0.00 77 1010.9
20260510091401 3 360 14.5 24.1 0.00 0.28 0.00 77 1010.8
20260510090839 3 360 16.1 24.1 0.00 0.28 0.00 78 1010.8
20260510090342 3 157 16.1 24.1 0.00 0.28 0.00 78 1010.7
20260510085825 3 157 14.5 25.7 0.00 0.28 0.00 79 1010.6
20260510085349 3 360 14.5 25.7 0.00 0.28 0.00 80 1010.6
20260510084827 3 186 12.9 20.9 0.00 0.28 0.00 82 1010.5
20260510084331 3 360 16.1 20.9 0.00 0.28 0.00 82 1010.5
20260510083831 3 170 11.3 19.3 0.00 0.28 0.00 82 1010.5
20260510083354 3 360 14.5 22.5 0.00 0.28 0.00 81 1010.4
20260510082829 3 360 12.9 24.1 0.00 0.28 0.00 81 1010.4
20260510082335 3 360 16.1 25.7 0.00 0.28 0.00 80 1010.3
20260510081832 3 360 17.7 25.7 0.00 0.28 0.00 80 1010.2
20260510081356 3 360 17.7 22.5 0.00 0.28 0.00 81 1010.2
20260510080834 3 360 14.5 22.5 0.00 0.28 0.00 80 1010.1
20260510080337 3 360 16.1 27.4 0.00 0.28 0.00 80 1010.1
20260510075834 3 360 17.7 27.4 0.00 0.28 0.00 80 1010.1
20260510075337 3 360 16.1 22.5 0.00 0.28 0.00 80 1010.1
20260510074854 3 360 12.9 20.9 0.00 0.28 0.00 81 1010.0
20260510074337 3 360 12.9 19.3 0.00 0.28 0.00 81 1010.0
20260510073836 3 360 9.7 24.1 0.00 0.28 0.00 81 1010.0
20260510073400 3 360 12.9 25.7 0.00 0.28 0.00 81 1009.9
20260510072842 3 360 17.7 27.4 0.00 0.28 0.00 82 1009.8
20260510072325 2 360 17.7 27.4 0.00 0.28 0.00 83 1009.8
20260510071903 2 360 12.9 17.7 0.00 0.28 0.00 84 1009.7
20260510071326 2 169 12.9 19.3 0.00 0.28 0.00 84 1009.7
20260510070845 2 177 11.3 19.3 0.00 0.28 0.00 84 1009.7
20260510070327 2 360 11.3 17.7 0.00 0.28 0.00 84 1009.7
20260510065846 2 360 9.7 16.1 0.00 0.28 0.00 85 1009.6
20260510065348 2 360 8.0 12.9 0.00 0.28 0.00 85 1009.6
20260510064842 2 155 6.4 12.9 0.00 0.28 0.00 84 1009.6
20260510064327 2 143 6.4 11.3 0.00 0.28 0.00 84 1009.4
20260510063846 2 159 8.0 11.3 0.00 0.28 0.00 84 1009.2
20260510063348 2 360 6.4 9.7 0.00 0.28 0.00 84 1009.3
20260510062826 2 360 4.8 9.7 0.00 0.28 0.00 84 1009.3
20260510062349 2 360 6.4 14.5 0.00 0.28 0.00 83 1009.3
20260510061847 2 360 9.7 14.5 0.00 0.28 0.00 84 1009.3
20260510061349 2 360 6.4 14.5 0.00 0.28 0.00 84 1009.3
20260510060827 2 360 6.4 12.9 0.00 0.28 0.00 84 1009.2
20260510060331 3 360 6.4 16.1 0.00 0.28 0.00 84 1009.2
20260510055832 2 360 8.0 16.1 0.00 0.28 0.00 85 1009.3
20260510055355 2 360 6.4 9.7 0.00 0.28 0.00 85 1009.3
20260510054855 3 360 4.8 9.7 0.00 0.28 0.00 85 1009.2
20260510054339 3 360 6.4 12.9 0.00 0.28 0.00 84 1009.4
20260510053839 3 360 8.0 19.3 0.00 0.28 0.00 84 1009.3
20260510053328 3 13 8.0 19.3 0.00 0.28 0.00 84 1009.3
20260510052827 3 360 9.7 19.3 0.00 0.28 0.00 83 1009.3
20260510052332 3 360 12.9 20.9 0.00 0.28 0.00 83 1009.2
20260510051832 3 360 14.5 20.9 0.00 0.28 0.00 82 1009.1
20260510051337 3 360 11.3 19.3 0.00 0.28 0.00 82 1009.0
20260510050837 3 360 11.3 20.9 0.00 0.28 0.00 81 1008.9
20260510050341 3 360 14.5 20.9 0.00 0.28 0.00 81 1008.9
20260510045840 3 360 16.1 19.3 0.00 0.28 0.00 81 1008.8
20260510045325 4 360 12.9 25.7 0.00 0.28 0.00 80 1008.7
20260510044842 4 360 14.5 22.5 0.00 0.28 0.00 80 1008.6
20260510044327 4 360 14.5 22.5 0.00 0.28 0.00 80 1008.6
20260510043832 4 360 14.5 22.5 0.00 0.28 0.28 80 1008.5
20260510043357 4 360 16.1 24.1 0.00 0.28 0.28 80 1008.5
20260510042836 4 360 14.5 24.1 0.00 0.28 0.28 79 1008.5
20260510042341 4 15 16.1 20.9 0.00 0.28 0.28 79 1008.3
20260510041900 4 360 14.5 20.9 0.00 0.28 0.28 78 1008.2
20260510041343 5 360 16.1 32.2 0.00 0.28 0.28 78 1008.2
20260510040902 5 189 19.3 29.0 0.00 0.28 0.28 77 1008.1
20260510040327 5 360 17.7 29.0 0.00 0.28 0.28 77 1007.9
20260510035828 4 360 14.5 29.0 0.00 0.28 0.28 77 1007.9
20260510035332 5 360 14.5 29.0 0.00 0.28 0.28 77 1007.8
20260510034851 5 360 16.1 29.0 0.00 0.28 0.28 75 1007.6
20260510034335 5 360 19.3 29.0 0.00 0.28 0.28 75 1007.6
20260510033835 5 360 20.9 35.4 0.00 0.28 0.28 75 1007.5
20260510033337 5 360 19.3 32.2 0.00 0.28 0.28 76 1007.5
20260510032836 5 360 20.9 32.2 0.00 0.28 0.28 77 1007.5
20260510032400 4 360 17.7 27.4 0.00 0.28 0.28 78 1007.5
20260510031838 4 360 16.1 33.8 0.00 0.28 0.28 79 1007.4
20260510031326 4 360 17.7 33.8 0.00 0.28 0.28 80 1007.3
20260510030825 4 360 12.9 19.3 0.00 0.28 0.28 81 1007.2
20260510030349 4 360 11.3 22.5 0.00 0.28 0.28 81 1007.1
20260510025829 4 360 14.5 22.5 0.00 0.28 0.28 81 1007.1
20260510025333 5 360 11.3 20.9 0.00 0.28 0.28 81 1007.1
20260510024834 5 360 12.9 19.3 0.00 0.28 0.28 81 1007.1
20260510024338 5 360 11.3 20.9 0.00 0.28 0.28 80 1007.0
20260510023840 5 360 9.7 19.3 0.00 0.28 0.28 80 1007.0
20260510023325 5 360 9.7 19.3 0.00 0.28 0.28 80 1006.8
20260510022825 5 360 8.0 19.3 0.00 0.28 0.28 79 1006.8
20260510022328 5 360 11.3 16.1 0.00 0.28 0.28 79 1006.6
20260510021828 5 360 9.7 16.1 0.00 0.28 0.28 77 1006.6
20260510021352 5 360 9.7 17.7 0.00 0.28 0.28 76 1006.5
20260510020828 5 360 12.9 20.9 0.00 0.28 0.28 75 1006.3
20260510020332 6 360 14.5 20.9 0.00 0.28 0.28 74 1006.2
20260510015833 6 360 11.3 22.5 0.00 0.28 0.28 73 1006.2
20260510015337 6 360 9.7 22.5 0.00 0.28 0.28 71 1006.0
20260510014836 6 360 12.9 17.7 0.00 0.28 0.28 71 1005.8
20260510014340 6 360 8.0 19.3 0.00 0.28 0.28 71 1005.9
20260510013839 6 360 9.7 19.3 0.00 0.28 0.28 70 1005.7
20260510013343 6 360 8.0 14.5 0.00 0.28 0.28 71 1005.7
20260510012842 6 360 8.0 17.7 0.00 0.28 0.28 71 1005.4
20260510012326 6 360 11.3 17.7 0.00 0.28 0.28 71 1005.3
20260510011827 6 360 8.0 17.7 0.00 0.28 0.28 71 1005.2
20260510011351 6 360 6.4 14.5 0.00 0.28 0.28 72 1005.2
20260510010829 6 360 3.2 8.0 0.00 0.28 0.28 73 1005.0
20260510010333 6 360 1.6 12.9 0.00 0.28 0.28 73 1004.9
20260510005832 6 360 4.8 12.9 0.00 0.28 0.28 72 1004.8
20260510005357 6 360 6.4 16.1 0.00 0.28 0.28 72 1004.7
20260510004839 7 17 9.7 17.7 0.00 0.28 0.28 72 1004.6
20260510004324 7 15 11.3 17.7 0.00 0.28 0.28 71 1004.4
20260510003843 7 10 12.9 20.9 0.00 0.28 0.28 71 1004.4
20260510003348 7 254 9.7 16.1 0.00 0.28 0.28 73 1004.3
20260510002848 7 10 9.7 16.1 0.00 0.28 0.28 72 1004.4
20260510002331 7 13 9.7 17.7 0.00 0.28 0.28 73 1004.3
20260510001830 7 360 9.7 19.3 0.00 0.28 0.28 74 1004.1
20260510001332 7 360 11.3 19.3 0.00 0.28 0.28 75 1004.1
20260510000829 7 11 8.0 12.9 0.00 0.28 0.28 75 1003.8
20260510000333 7 233 8.0 16.1 0.00 0.28 0.28 76 1003.7
20260509235833 7 246 8.0 16.1 0.00 0.28 0.28 77 1003.6
20260509235337 7 238 6.4 12.9 0.00 0.28 0.28 76 1003.6
20260509234837 7 261 8.0 14.5 0.00 0.28 0.28 76 1003.5
20260509234324 8 244 8.0 16.1 0.00 0.28 0.28 75 1003.4
20260509233859 8 262 9.7 16.1 0.00 0.28 0.28 75 1003.3
20260509233325 8 254 8.0 16.1 0.00 0.28 0.28 75 1003.1
20260509232842 8 243 9.7 17.7 0.00 0.28 0.28 75 1003.1
20260509232326 8 12 11.3 17.7 0.00 0.28 0.28 75 1003.0
20260509231825 8 5 12.9 19.3 0.00 0.28 0.28 74 1002.9
20260509231328 8 19 11.3 22.5 0.00 0.28 0.28 74 1002.8
20260509230848 9 14 16.1 22.5 0.00 0.28 0.28 72 1002.8
20260509230351 10 249 14.5 22.5 0.00 0.28 0.28 73 1002.7
20260509225849 9 234 14.5 22.5 0.00 0.28 0.28 74 1002.6
20260509225331 8 250 12.9 22.5 0.00 0.28 0.28 78 1002.5
20260509224831 8 9 12.9 24.1 0.00 0.28 0.28 77 1002.4
20260509224334 8 223 16.1 29.0 0.00 0.28 0.28 76 1002.3
20260509223833 9 248 19.3 30.6 0.00 0.28 0.28 74 1002.2
20260509223337 9 247 20.9 30.6 0.00 0.28 0.28 74 1002.1
20260509222855 10 242 19.3 29.0 0.00 0.28 0.28 73 1001.9
20260509222337 10 225 19.3 27.4 0.00 0.28 0.28 71 1001.6
20260509221837 11 198 16.1 27.4 0.00 0.28 0.28 72 1001.5
20260509221325 11 217 17.7 32.2 0.00 0.28 0.28 72 1001.3
20260509220823 11 204 20.9 32.2 0.00 0.28 0.28 70 1001.2
20260509220328 11 218 14.5 27.4 0.00 0.28 0.28 71 1001.0
20260509215827 12 207 19.3 30.6 0.00 0.28 0.28 71 1001.0
20260509215330 11 360 19.3 30.6 0.00 0.28 0.28 71 1000.9
20260509214828 12 207 16.1 30.6 0.00 0.28 0.28 73 1000.8
20260509214332 12 360 14.5 25.7 0.00 0.28 0.28 74 1000.8
20260509213851 12 221 16.1 32.2 0.00 0.28 0.28 72 1000.7
20260509213354 12 221 16.1 29.0 0.00 0.28 0.28 72 1000.6
20260509212832 12 360 16.1 32.2 0.00 0.28 0.28 74 1000.6
20260509212354 12 218 19.3 32.2 0.00 0.28 0.28 72 1000.5
20260509211830 12 360 16.1 37.0 0.00 0.28 0.28 73 1000.5
20260509211334 12 219 12.9 37.0 0.00 0.28 0.28 75 1000.4
20260509210834 12 225 11.3 30.6 0.00 0.28 0.28 76 1000.3
20260509210338 12 360 12.9 27.4 0.00 0.28 0.28 76 1000.3
20260509205837 12 360 14.5 24.1 0.00 0.28 0.28 76 1000.3
20260509205323 12 360 12.9 29.0 0.00 0.28 0.28 78 1000.2
20260509204858 12 220 14.5 29.0 0.00 0.28 0.28 77 1000.0
20260509204325 12 212 12.9 29.0 0.00 0.28 0.28 78 1000.1
20260509203904 12 206 11.3 25.7 0.00 0.28 0.28 79 1000.0
20260509203346 12 360 11.3 25.7 0.00 0.28 0.28 78 999.9
20260509202843 12 220 12.9 24.1 0.00 0.28 0.28 77 999.9
20260509202327 12 209 12.9 30.6 0.00 0.28 0.28 78 999.8
20260509201827 12 360 16.1 30.6 0.00 0.28 0.28 79 999.8
20260509201330 12 222 11.3 27.4 0.00 0.28 0.28 81 999.8
20260509200850 12 209 8.0 27.4 0.10 0.28 0.28 83 999.8
20260509200332 12 187 8.0 24.1 0.13 0.28 0.28 84 999.8
20260509195851 12 191 11.3 25.7 0.18 0.28 0.28 86 999.9
20260509195329 11 360 14.5 25.7 0.20 0.28 0.28 87 999.8
20260509194848 11 148 12.9 25.7 0.20 0.28 0.28 87 999.8
20260509194330 11 360 14.5 25.7 0.20 0.28 0.28 88 999.9
20260509193830 11 360 16.1 24.1 0.20 0.28 0.28 87 999.8
20260509193334 11 182 14.5 27.4 0.20 0.28 0.28 87 999.7
20260509192854 11 157 12.9 27.4 0.20 0.28 0.28 88 999.6
20260509192337 10 156 9.7 29.0 0.20 0.28 0.28 87 999.8
20260509191836 10 173 14.5 32.2 0.20 0.28 0.28 87 1000.0
20260509191324 10 175 20.9 35.4 0.20 0.28 0.28 86 999.9